Time,TemperatureF,DewpointF,PressureIn,WindDirection,WindDirectionDegrees,WindSpeedMPH,WindSpeedGustMPH,Humidity,HourlyPrecipIn,Conditions,Clouds,dailyrainin,SoftwareType,DateUTC
2013-09-14 00:21:00,49.0,46.0,-100.00,East,86,2.0,2.0,88,-99.99,,,-99.99,,2013-09-14 06:21:00,
2013-09-14 00:42:00,50.0,47.0,-100.00,ENE,67,3.0,5.0,91,-99.99,,,-99.99,,2013-09-14 06:42:00,
2013-09-14 01:42:00,51.0,46.0,-100.00,ENE,58,7.0,8.0,84,-99.99,,,-99.99,,2013-09-14 07:42:00,
2013-09-14 02:12:00,49.0,45.0,-100.00,ENE,65,1.0,4.0,88,-99.99,,,-99.99,,2013-09-14 08:12:00,
2013-09-14 02:21:00,48.0,45.0,-100.00,NNE,30,1.0,2.0,90,-99.99,,,-99.99,,2013-09-14 08:21:00,
2013-09-14 02:42:00,48.0,45.0,-100.00,North,5,2.0,3.0,91,-99.99,,,-99.99,,2013-09-14 08:42:00,
2013-09-14 03:53:00,49.0,47.0,-100.00,North,1,1.0,4.0,91,-99.99,,,-99.99,,2013-09-14 09:53:00,
2013-09-14 04:23:00,49.0,46.0,-100.00,NNE,12,5.0,6.0,88,-99.99,,,-99.99,,2013-09-14 10:23:00,
2013-09-14 04:42:00,50.0,48.0,-100.00,North,0,0.0,1.0,91,-99.99,,,-99.99,,2013-09-14 10:42:00,
2013-09-14 05:12:00,49.0,46.0,-100.00,ENE,71,6.0,7.0,88,-99.99,,,-99.99,,2013-09-14 11:12:00,
2013-09-14 05:42:00,50.0,46.0,-100.00,ENE,57,8.0,8.0,86,-99.99,,,-99.99,,2013-09-14 11:42:00,
2013-09-14 06:12:00,50.0,46.0,-100.00,ESE,110,6.0,6.0,86,-99.99,,,-99.99,,2013-09-14 12:12:00,
2013-09-14 06:22:00,49.0,46.0,-100.00,East,86,5.0,6.0,87,-99.99,,,-99.99,,2013-09-14 12:22:00,
2013-09-14 06:42:00,50.0,46.0,-100.00,ENE,65,7.0,8.0,85,-99.99,,,-99.99,,2013-09-14 12:42:00,
2013-09-14 06:52:00,50.0,46.0,-100.00,ENE,69,4.0,7.0,85,-99.99,,,-99.99,,2013-09-14 12:52:00,
2013-09-14 07:12:00,49.0,46.0,-100.00,SSW,200,0.0,4.0,88,-99.99,,,-99.99,,2013-09-14 13:12:00,
2013-09-14 07:21:00,49.0,46.0,-100.00,North,11,3.0,3.0,90,-99.99,,,-99.99,,2013-09-14 13:21:00,
2013-09-14 07:42:00,50.0,47.0,-100.00,NW,316,2.0,3.0,91,-99.99,,,-99.99,,2013-09-14 13:42:00,
2013-09-14 08:22:00,51.0,49.0,-100.00,ESE,103,6.0,7.0,92,-99.99,,,-99.99,,2013-09-14 14:22:00,
2013-09-14 08:42:00,51.0,49.0,-100.00,SE,138,3.0,4.0,92,-99.99,,,-99.99,,2013-09-14 14:42:00,
2013-09-14 09:22:00,51.0,49.0,-100.00,WNW,301,3.0,4.0,92,-99.99,,,-99.99,,2013-09-14 15:22:00,
2013-09-14 09:43:00,52.0,50.0,-100.00,ESE,116,0.0,2.0,93,-99.99,,,-99.99,,2013-09-14 15:43:00,
2013-09-14 10:13:00,53.0,51.0,-100.00,SSE,156,4.0,5.0,89,-99.99,,,-99.99,,2013-09-14 16:13:00,
2013-09-14 10:44:00,56.0,51.0,-100.00,SW,232,5.0,6.0,86,-99.99,,,-99.99,,2013-09-14 16:44:00,
2013-09-14 11:11:00,56.0,50.0,-100.00,SSW,195,2.0,4.0,78,-99.99,,,-99.99,,2013-09-14 17:11:00,
2013-09-14 11:43:00,58.0,49.0,-100.00,South,179,3.0,7.0,72,-99.99,,,-99.99,,2013-09-14 17:43:00,
2013-09-14 12:21:00,59.0,50.0,-100.00,SSW,213,8.0,9.0,71,-99.99,,,-99.99,,2013-09-14 18:21:00,
2013-09-14 12:43:00,59.0,50.0,-100.00,SW,224,9.0,13.0,71,-99.99,,,-99.99,,2013-09-14 18:43:00,
2013-09-14 13:11:00,63.0,47.0,-100.00,SW,220,12.0,15.0,57,-99.99,,,-99.99,,2013-09-14 19:11:00,
2013-09-14 13:22:00,64.0,49.0,-100.00,SSW,202,11.0,15.0,57,-99.99,,,-99.99,,2013-09-14 19:22:00,
2013-09-14 13:42:00,59.0,46.0,-100.00,WNW,292,8.0,16.0,63,-99.99,,,-99.99,,2013-09-14 19:42:00,
2013-09-14 14:22:00,61.0,46.0,-100.00,NW,306,10.0,15.0,57,-99.99,,,-99.99,,2013-09-14 20:22:00,
2013-09-14 14:42:00,62.0,47.0,-100.00,NNW,328,11.0,15.0,57,-99.99,,,-99.99,,2013-09-14 20:42:00,
2013-09-14 15:11:00,61.0,50.0,-100.00,NW,326,16.0,22.0,68,-99.99,,,-99.99,,2013-09-14 21:11:00,
2013-09-14 15:22:00,60.0,50.0,-100.00,NW,322,17.0,22.0,69,-99.99,,,-99.99,,2013-09-14 21:22:00,
2013-09-14 15:44:00,61.0,51.0,-100.00,NNW,327,16.0,22.0,68,-99.99,,,-99.99,,2013-09-14 21:44:00,
2013-09-14 16:10:00,59.0,48.0,-100.00,NW,323,8.0,11.0,66,-99.99,,,-99.99,,2013-09-14 22:10:00,
2013-09-14 16:13:00,61.0,47.0,-100.00,NW,319,12.0,16.0,59,-99.99,,,-99.99,,2013-09-14 22:13:00,
2013-09-14 16:24:00,61.0,47.0,-100.00,NW,319,12.0,16.0,59,-99.99,,,-99.99,,2013-09-14 22:24:00,
2013-09-14 16:42:00,59.0,48.0,-100.00,NW,323,8.0,11.0,66,-99.99,,,-99.99,,2013-09-14 22:42:00,
2013-09-14 16:53:00,59.0,48.0,-100.00,NW,323,8.0,11.0,66,-99.99,,,-99.99,,2013-09-14 22:53:00,
2013-09-14 17:03:00,59.0,48.0,-100.00,NW,323,8.0,11.0,66,-99.99,,,-99.99,,2013-09-14 23:03:00,
2013-09-14 17:40:00,58.0,50.0,-100.00,SSE,163,2.0,7.0,77,-99.99,,,-99.99,,2013-09-14 23:40:00,
2013-09-14 17:42:00,59.0,50.0,-100.00,SSE,147,6.0,9.0,72,-99.99,,,-99.99,,2013-09-14 23:42:00,
2013-09-14 18:12:00,58.0,50.0,-100.00,SSE,163,2.0,7.0,77,-99.99,,,-99.99,,2013-09-15 00:12:00,
2013-09-14 18:22:00,58.0,50.0,-100.00,SSE,163,2.0,7.0,77,-99.99,,,-99.99,,2013-09-15 00:22:00,
2013-09-14 18:32:00,58.0,50.0,-100.00,SSE,163,2.0,7.0,77,-99.99,,,-99.99,,2013-09-15 00:32:00,
2013-09-14 18:53:00,56.0,48.0,-100.00,ESE,102,8.0,8.0,74,-99.99,,,-99.99,,2013-09-15 00:53:00,
2013-09-14 19:01:00,56.0,48.0,-100.00,ESE,102,8.0,8.0,74,-99.99,,,-99.99,,2013-09-15 01:01:00,
2013-09-14 19:22:00,56.0,48.0,-100.00,East,89,5.0,7.0,73,-99.99,,,-99.99,,2013-09-15 01:22:00,
2013-09-14 19:42:00,57.0,49.0,-100.00,NE,42,3.0,4.0,74,-99.99,,,-99.99,,2013-09-15 01:42:00,
2013-09-14 20:22:00,55.0,47.0,-100.00,NE,54,8.0,9.0,74,-99.99,,,-99.99,,2013-09-15 02:22:00,
2013-09-14 20:42:00,55.0,46.0,-100.00,NE,48,7.0,9.0,71,-99.99,,,-99.99,,2013-09-15 02:42:00,
2013-09-14 21:21:00,54.0,47.0,-100.00,ENE,78,6.0,6.0,76,-99.99,,,-99.99,,2013-09-15 03:21:00,
2013-09-14 21:44:00,55.0,46.0,-100.00,ENE,60,5.0,6.0,73,-99.99,,,-99.99,,2013-09-15 03:44:00,
2013-09-14 22:02:00,-999.0,-99.9,-100.00,NE,46,7.0,9.0,-999,-99.99,,,-99.99,,2013-09-15 04:02:00,
2013-09-14 22:13:00,54.0,47.0,-100.00,NE,46,7.0,9.0,77,-99.99,,,-99.99,,2013-09-15 04:13:00,
2013-09-14 22:24:00,55.0,47.0,-100.00,NE,43,6.0,6.0,73,-99.99,,,-99.99,,2013-09-15 04:24:00,
2013-09-14 22:43:00,53.0,48.0,-100.00,East,83,10.0,10.0,81,-99.99,,,-99.99,,2013-09-15 04:43:00,
2013-09-14 22:54:00,52.0,48.0,-100.00,ENE,72,7.0,9.0,83,-99.99,,,-99.99,,2013-09-15 04:54:00,
2013-09-14 23:13:00,52.0,47.0,-100.00,NE,52,8.0,8.0,83,-99.99,,,-99.99,,2013-09-15 05:13:00,
2013-09-14 23:42:00,52.0,48.0,-100.00,NE,54,7.0,7.0,86,-99.99,,,-99.99,,2013-09-15 05:42:00,